Track STARLINK-2438 now! 10-day predictions STARLINK-2438 is classified as:
1 48103U 21027M 22186.36481455 -.00001867 00000-0 -10648-3 0 9999 2 48103 53.0560 62.0604 0001389 71.7287 288.3853 15.06398406 70228